[[{"header":{"parameterUnit":"m.s-1","parameterCategory":1,"la1":30.2991,"la2":30.254,"lo1":-89.0895,"lo2":-89.0444,"dy":0.0017,"dx":0.0017,"nx":28,"ny":28,"refTime":"2024-12-21T03:00:00:Z","depth":0,"parameterNumber":2,"parameterNumberName":"U-component_of_WINDS"},"data":[0,0,0,0,0,0,0,0,0,0,0,0,0,0,0,0,0,0,0,0,0,0,0,0,0,0,0,0,0,0,0,0,0,0,0,0,0,0,0,0,0,0,0,0,0,0,0,0,0,0,0,0,0,0,0,0,0,0,-2.192,-2.192,0,-2.196,-2.196,-2.196,-2.1887,-2.1884,-2.1882,-2.188,-2.1921,-2.1924,-2.1927,0,0,0,0,0,0,0,0,0,0,0,0,0,-2.178,-2.1782,-2.192,-2.192,-2.1921,-2.196,-2.196,-2.1961,-2.1887,-2.1884,-2.1881,-2.1878,-2.192,-2.1924,-2.1928,0,0,0,0,0,0,0,0,0,0,0,0,0,-2.1832,-2.1783,-2.192,-2.1889,-2.1886,-2.1959,-2.196,-2.1961,-2.1888,-2.1884,-2.188,-2.1877,-2.1918,-2.1923,-2.1928,-2.2033,0,0,-2.1944,-2.1946,0,0,0,0,0,0,0,0,-2.1829,-2.1837,-2.1893,-2.1891,-2.1889,-2.1914,-2.1926,-2.1985,-2.1889,-2.1887,-2.1879,-2.1875,-2.1922,-2.1926,-2.1942,-2.2035,-2.2037,-2.1944,-2.1947,-2.195,-2.1951,0,0,0,0,0,0,0,-2.1826,-2.1835,-2.1936,-2.1894,-2.1891,-2.1873,-2.1876,-2.1937,-2.1925,-2.1887,-2.1882,-2.1888,-2.192,-2.1937,-2.1942,-2.2038,-2.1944,-2.1949,-2.1952,-2.1954,-2.2218,-2.2222,0,0,0,0,0,0,-2.1826,-2.1833,-2.1934,-2.1937,-2.1849,-2.1878,-2.1882,-2.191,-2.1924,-2.1922,-2.1891,-2.1884,-2.193,-2.1936,-2.1943,-2.2067,-2.195,-2.1954,-2.1957,-2.2214,-2.2219,-2.2223,0,0,0,0,0,0,-2.1823,-2.1836,-2.1933,-2.1883,-2.1894,-2.1885,-2.1916,-2.1913,-2.193,-2.1927,-2.1924,-2.1911,-2.1928,-2.1936,-2.2011,-2.2067,-2.1957,-2.1961,-2.221,-2.2216,-2.2221,-2.2316,0,0,0,0,0,0,-2.1819,-2.1835,-2.1875,-2.1885,-2.1897,-2.2001,-2.192,-2.1916,-2.1939,-2.193,-2.1945,-2.1943,-2.1925,-2.2004,-2.2016,-2.2072,-2.1965,-2.2204,-2.2212,-2.2219,-2.2307,-2.2324,-2.2338,0,0,0,0,0,-2.1815,-2.1901,-2.1878,-2.189,-2.1947,-2.2004,-2.2011,-2.1988,-2.1944,-2.1984,-2.1981,-2.1943,-2.2059,-2.2012,-2.2026,-2.2084,-2.2201,-2.221,-2.2219,-2.2301,-2.2321,-2.2338,0,0,0,0,0,0,-2.1899,-2.1901,-2.1876,-2.1968,-2.1986,-2.1991,-2.2042,-2.2011,-2.2042,-2.2033,-2.2004,-2.2008,-2.2089,-2.2093,-2.2042,-2.2186,-2.2122,-2.2134,-2.218,-2.2199,-2.2214,-2.2212,-2.1969,0,0,0,0,0,-2.1928,-2.1974,-2.1973,-2.2054,-2.2065,-2.2052,-2.2076,-2.2056,-2.2074,-2.2082,-2.2085,-2.2104,-2.2144,-2.2172,-2.2209,-2.2307,-2.2309,-2.2354,-2.2369,-2.2382,-2.2393,-2.2444,-2.2464,-2.2253,-2.2253,-2.2252,0,0,-2.1989,-2.1996,-2.2027,-2.2071,-2.2083,-2.2131,-2.2059,-2.2113,-2.2148,-2.209,-2.2161,-2.2164,-2.2183,-2.227,-2.2308,-2.2276,-2.2451,-2.2393,-2.2403,-2.2407,-2.2456,-2.2476,-2.2493,-2.2259,-2.2258,-2.2257,0,0,-2.2125,-2.2135,-2.2203,-2.2216,-2.2235,-2.2225,-2.2241,-2.2251,-2.2251,-2.2321,-2.2278,-2.2319,-2.239,-2.2405,-2.2422,-2.2561,-2.2527,-2.2574,-2.2655,-2.2706,-2.2722,-2.2737,-2.2787,-2.2805,-2.2585,-2.2585,-2.2585,0,-2.2198,-2.2269,-2.2242,-2.2299,-2.2319,-2.2268,-2.2336,-2.235,-2.2381,-2.2396,-2.2359,-2.2446,-2.2455,-2.2545,-2.2579,-2.2594,-2.2611,-2.2573,-2.2722,-2.2736,-2.275,-2.2797,-2.2815,-2.2591,-2.259,-2.2589,-2.2589,0,-2.2359,-2.2408,-2.2461,-2.2491,-2.2517,-2.258,-2.2561,-2.2591,-2.2569,-2.2563,-2.2635,-2.2644,-2.2681,-2.2701,-2.268,-2.2787,-2.2767,-2.2727,-2.2663,-2.2776,-2.282,-2.2837,-2.2599,-2.2597,-2.2595,-2.2593,0,0,-2.2551,-2.2563,-2.2583,-2.2595,-2.2611,-2.2649,-2.2708,-2.2745,-2.2771,-2.2793,-2.2842,-2.2902,-2.2864,-2.2884,-2.2864,-2.2908,-2.3017,-2.2862,-2.2862,-2.2891,-2.3136,-2.3166,-2.3188,-2.2994,-2.2997,-2.3,-2.3134,0,-2.2686,-2.2788,-2.2765,-2.2866,-2.2911,-2.2862,-2.2913,-2.2928,-2.2924,-2.2961,-2.2956,-2.2999,-2.2946,-2.2957,-2.2999,-2.2996,-2.3066,-2.2985,-2.304,-2.3042,-2.3038,-2.321,-2.3243,-2.337,-2.3151,-2.3154,-2.3156,0,-2.2857,-2.2885,-2.2991,-2.2998,-2.3016,-2.3063,-2.3094,-2.313,-2.3146,-2.3139,-2.316,-2.3131,-2.3189,-2.3123,-2.3203,-2.3148,-2.3169,-2.317,-2.3174,-2.318,-2.3107,-2.3221,-2.3409,-2.3428,-2.3182,-2.318,-2.3178,0,-2.2987,-2.3051,-2.3122,-2.3134,-2.3145,-2.3179,-2.3185,-2.3196,-2.3219,-2.3246,-2.326,-2.3293,-2.3312,-2.3338,-2.3318,-2.3272,-2.3401,-2.3334,-2.3397,-2.3398,-2.3428,-2.3426,-2.3623,-2.344,-2.344,-2.3439,-2.3439,0,-2.3141,-2.3208,-2.3181,-2.3225,-2.3298,-2.3269,-2.3342,-2.3342,-2.3352,-2.3395,-2.3354,-2.3395,-2.3366,-2.3404,-2.3389,-2.3457,-2.3466,-2.3462,-2.3457,-2.3466,-2.3467,-2.348,-2.3471,-2.3444,-2.3443,-2.3442,-2.3441,0,-2.3299,-2.3284,-2.3358,-2.3361,-2.3363,-2.3417,-2.342,-2.346,-2.3451,-2.3506,-2.3517,-2.3504,-2.3547,-2.3529,-2.3575,-2.3564,-2.3652,-2.3635,-2.3647,-2.3643,-2.3707,-2.3702,-2.392,-2.3947,-2.3746,-2.3748,-2.375,0,-2.3399,-2.3449,-2.3457,-2.3483,-2.3491,-2.3533,-2.3556,-2.3529,-2.3554,-2.3575,-2.3613,-2.3652,-2.3682,-2.3752,-2.3747,-2.3781,-2.3765,-2.3839,-2.377,-2.3777,-2.3767,-2.3764,-2.3769,-2.3854,-2.3856,-2.3858,-2.3859,0,-2.3578,-2.3567,-2.3602,-2.3634,-2.3662,-2.3685,-2.3705,-2.3729,-2.3702,-2.3733,-2.3776,-2.3799,-2.3844,-2.3884,-2.3913,-2.3919,-2.3885,-2.3881,-2.3897,-2.3908,-2.3912,-2.3911,-2.3685,-2.3876,-2.3875,-2.3873,-2.3872,-2.3872,-2.371,-2.3752,-2.3764,-2.3803,-2.3815,-2.3835,-2.3873,-2.3868,-2.3904,-2.3939,-2.392,-2.397,-2.3983,-2.4019,-2.4029,-2.4067,-2.4038,-2.4062,-2.4068,-2.4075,-2.4084,-2.3905,-2.4072,-2.4072,-2.4071,-2.4071,-2.4071,0,-2.3887,-2.3892,-2.3928,-2.3957,-2.3988,-2.3952,-2.3972,-2.4,-2.4045,-2.4059,-2.4089,-2.4138,-2.4175,-2.4172,-2.4206,-2.4237,-2.4222,-2.4247,-2.4245,-2.4246,-2.4108,-2.409,-2.4258,-2.4258,-2.4258,-2.4258,-2.4258,-2.4258,-2.3983,-2.4052,-2.4042,-2.4116,-2.412,-2.4168,-2.4183,-2.42,-2.4211,-2.4268,-2.4298,-2.4295,-2.4302,-2.4336,-2.4369,-2.4366,-2.4381,-2.4412,-2.4404,-2.4275,-2.4256,-2.4239,-2.4222,-2.4415,-2.4415,-2.454,-2.4541,-2.4542]},{"header":{"parameterUnit":"m.s-1","parameterCategory":1,"la1":30.2991,"la2":30.254,"lo1":-89.0895,"lo2":-89.0444,"dy":0.0017,"dx":0.0017,"nx":28,"ny":28,"refTime":"2024-12-21T03:00:00:Z","depth":0,"parameterNumber":3,"parameterNumberName":"V-component_of_WINDS"},"data":[0,0,0,0,0,0,0,0,0,0,0,0,0,0,0,0,0,0,0,0,0,0,0,0,0,0,0,0,0,0,0,0,0,0,0,0,0,0,0,0,0,0,0,0,0,0,0,0,0,0,0,0,0,0,0,0,0,0,-7.3533,-7.3535,0,-7.3663,-7.3664,-7.3666,-7.3583,-7.3579,-7.3575,-7.3571,-7.3697,-7.3704,-7.3711,0,0,0,0,0,0,0,0,0,0,0,0,0,-7.3207,-7.3213,-7.3533,-7.3535,-7.3536,-7.3662,-7.3664,-7.3666,-7.3583,-7.3579,-7.3574,-7.357,-7.3695,-7.3703,-7.3712,0,0,0,0,0,0,0,0,0,0,0,0,0,-7.3343,-7.3215,-7.3533,-7.3511,-7.351,-7.3662,-7.3664,-7.3666,-7.3584,-7.3579,-7.3573,-7.3568,-7.3692,-7.3702,-7.3713,-7.3892,0,0,-7.3745,-7.3749,0,0,0,0,0,0,0,0,-7.3336,-7.3355,-7.3512,-7.3512,-7.3512,-7.3601,-7.3595,-7.3742,-7.3586,-7.3556,-7.3571,-7.3565,-7.3669,-7.3681,-7.3718,-7.3898,-7.3903,-7.3745,-7.3752,-7.3756,-7.3759,0,0,0,0,0,0,0,-7.3326,-7.3349,-7.3584,-7.3515,-7.3514,-7.3492,-7.3505,-7.3623,-7.3643,-7.3558,-7.3552,-7.3569,-7.3668,-7.3708,-7.372,-7.3905,-7.3745,-7.3754,-7.3761,-7.3765,-7.4236,-7.4242,0,0,0,0,0,0,-7.332,-7.3342,-7.358,-7.3588,-7.3408,-7.3502,-7.3517,-7.3578,-7.3642,-7.3646,-7.3574,-7.3565,-7.3693,-7.3708,-7.3725,-7.3938,-7.3756,-7.3766,-7.3772,-7.423,-7.4238,-7.4245,0,0,0,0,0,0,-7.3313,-7.3342,-7.3575,-7.3464,-7.3492,-7.3514,-7.3583,-7.3584,-7.3624,-7.3654,-7.3656,-7.3612,-7.3689,-7.371,-7.3851,-7.3941,-7.3771,-7.378,-7.4223,-7.4232,-7.4241,-7.4366,0,0,0,0,0,0,-7.3304,-7.334,-7.341,-7.3466,-7.3498,-7.3702,-7.3589,-7.359,-7.3643,-7.3632,-7.369,-7.3694,-7.3686,-7.3836,-7.3861,-7.3952,-7.3788,-7.4215,-7.4227,-7.4238,-7.4354,-7.4378,-7.44,0,0,0,0,0,-7.3293,-7.3439,-7.3414,-7.3443,-7.3587,-7.3707,-7.3725,-7.3716,-7.365,-7.372,-7.3739,-7.3692,-7.3927,-7.3851,-7.3879,-7.3974,-7.4209,-7.4224,-7.4237,-7.4344,-7.4374,-7.4399,0,0,0,0,0,0,-7.3391,-7.3446,-7.3419,-7.3588,-7.3644,-7.3693,-7.3781,-7.3748,-7.3822,-7.3808,-7.3791,-7.3805,-7.3952,-7.3977,-7.3892,-7.415,-7.4057,-7.4078,-7.4129,-7.4157,-7.418,-7.417,-7.3797,0,0,0,0,0,-7.3433,-7.3529,-7.357,-7.3716,-7.3745,-7.3759,-7.3811,-7.3799,-7.3855,-7.3877,-7.3906,-7.3961,-7.4046,-7.4103,-7.4184,-7.4357,-7.4367,-7.4436,-7.4459,-7.4477,-7.4495,-7.4586,-7.4617,-7.4291,-7.4291,-7.4291,0,0,-7.3519,-7.3561,-7.3622,-7.3736,-7.3778,-7.3875,-7.3779,-7.3886,-7.3957,-7.3892,-7.4028,-7.4052,-7.411,-7.4268,-7.4339,-7.4293,-7.4587,-7.4495,-7.451,-7.4517,-7.4604,-7.4635,-7.4662,-7.4301,-7.4299,-7.4297,0,0,-7.3727,-7.3769,-7.3894,-7.3938,-7.4003,-7.4011,-7.4041,-7.4096,-7.4109,-7.4245,-7.4199,-7.4281,-7.443,-7.4474,-7.4516,-7.4739,-7.4698,-7.4765,-7.4884,-7.4974,-7.4999,-7.5022,-7.51,-7.5129,-7.4783,-7.4783,-7.4783,0,-7.3826,-7.3973,-7.3962,-7.4073,-7.4123,-7.4072,-7.4196,-7.4239,-7.4326,-7.4361,-7.4309,-7.4494,-7.453,-7.4697,-7.4751,-7.4787,-7.4819,-7.4758,-7.4997,-7.502,-7.504,-7.5115,-7.5144,-7.4791,-7.479,-7.4789,-7.4788,0,-7.409,-7.4193,-7.4285,-7.4373,-7.4434,-7.4552,-7.4556,-7.4618,-7.4601,-7.4613,-7.4751,-7.4793,-7.488,-7.4919,-7.4902,-7.5083,-7.5052,-7.4999,-7.4906,-7.5079,-7.5149,-7.5177,-7.4802,-7.4799,-7.4797,-7.4795,0,0,-7.4363,-7.4444,-7.4478,-7.4517,-7.4584,-7.4662,-7.4776,-7.4864,-7.4917,-7.4978,-7.5072,-7.5199,-7.515,-7.5197,-7.5184,-7.5263,-7.5435,-7.52,-7.5201,-7.5241,-7.5635,-7.5674,-7.5707,-7.5409,-7.5414,-7.5418,-7.563,0,-7.4574,-7.4776,-7.4769,-7.4955,-7.5049,-7.5,-7.5099,-7.515,-7.5164,-7.5243,-7.5257,-7.5347,-7.5277,-7.5305,-7.5381,-7.5399,-7.5514,-7.5383,-7.5493,-7.5497,-7.548,-7.5744,-7.5786,-7.5983,-7.5657,-7.5661,-7.5665,0,-7.4847,-7.492,-7.5117,-7.517,-7.5208,-7.5298,-7.5377,-7.5454,-7.5509,-7.5514,-7.5567,-7.5541,-7.5654,-7.5558,-7.5711,-7.5622,-7.5667,-7.5682,-7.5689,-7.5699,-7.5591,-7.5759,-7.6046,-7.6075,-7.5708,-7.5704,-7.5701,0,-7.5025,-7.5172,-7.5308,-7.5343,-7.5409,-7.5472,-7.5502,-7.5552,-7.5605,-7.5673,-7.5707,-7.5787,-7.583,-7.5891,-7.5887,-7.5818,-7.6042,-7.5946,-7.6047,-7.6047,-7.6096,-7.6093,-7.6393,-7.6126,-7.6126,-7.6125,-7.6124,0,-7.526,-7.5382,-7.5389,-7.5473,-7.5608,-7.5597,-7.573,-7.5752,-7.5797,-7.5883,-7.5845,-7.5925,-7.5915,-7.5995,-7.5992,-7.6118,-7.6138,-7.6143,-7.6141,-7.6146,-7.6146,-7.6175,-7.616,-7.6133,-7.6131,-7.613,-7.6128,0,-7.5482,-7.5492,-7.5637,-7.5688,-7.5703,-7.58,-7.5842,-7.592,-7.5931,-7.6039,-7.6064,-7.608,-7.6173,-7.6174,-7.6279,-7.6277,-7.6431,-7.6414,-7.6414,-7.641,-7.651,-7.65,-7.6839,-7.6882,-7.6588,-7.6591,-7.6594,0,-7.5631,-7.5724,-7.5785,-7.5841,-7.5875,-7.5965,-7.6019,-7.6012,-7.6069,-7.6139,-7.6208,-7.6297,-7.6368,-7.6517,-7.6537,-7.6616,-7.66,-7.6713,-7.6611,-7.6614,-7.66,-7.6594,-7.6603,-7.6732,-7.6736,-7.6738,-7.674,0,-7.5895,-7.5895,-7.5976,-7.6059,-7.6125,-7.6189,-7.6248,-7.6295,-7.6294,-7.636,-7.6455,-7.651,-7.6618,-7.6706,-7.6783,-7.681,-7.6775,-7.6772,-7.68,-7.6806,-7.6802,-7.6804,-7.6467,-7.6764,-7.6762,-7.676,-7.6759,-7.6758,-7.6084,-7.6164,-7.622,-7.631,-7.6355,-7.6411,-7.6487,-7.6508,-7.6588,-7.6676,-7.6666,-7.6771,-7.6822,-7.6922,-7.6956,-7.7037,-7.6997,-7.7037,-7.7047,-7.7057,-7.7067,-7.679,-7.7051,-7.705,-7.7049,-7.7049,-7.7048,0,-7.6345,-7.6378,-7.6462,-7.6547,-7.6618,-7.6581,-7.6644,-7.6705,-7.6799,-7.6851,-7.6922,-7.703,-7.7115,-7.7141,-7.7223,-7.7282,-7.7267,-7.7303,-7.7298,-7.7305,-7.7099,-7.7066,-7.7314,-7.7314,-7.7313,-7.7313,-7.7313,-7.7313,-7.6489,-7.6622,-7.6629,-7.6782,-7.6813,-7.6918,-7.6957,-7.7008,-7.7049,-7.7173,-7.7244,-7.7261,-7.7302,-7.7386,-7.7462,-7.7467,-7.7498,-7.7541,-7.7539,-7.7346,-7.7319,-7.7294,-7.7264,-7.7548,-7.7548,-7.7739,-7.774,-7.7742]}]]